[[{"header":{"parameterUnit":"m.s-1","parameterCategory":1,"la1":30.2991,"la2":30.254,"lo1":-89.0895,"lo2":-89.0444,"dy":0.0017,"dx":0.0017,"nx":28,"ny":28,"refTime":"2024-05-24T03:00:00:Z","depth":0,"parameterNumber":2,"parameterNumberName":"U-component_of_WINDS"},"data":[0,0,0,0,0,0,0,0,0,0,0,0,0,0,0,0,0,0,0,0,0,0,0,0,0,0,0,0,0,0,0,0,0,0,0,0,0,0,0,0,0,0,0,0,0,0,0,0,0,0,0,0,0,0,0,0,0,0,-0.9589,-0.9589,0,-0.9578,-0.9577,-0.9577,-0.9544,-0.9543,-0.9542,-0.9542,-0.9531,-0.9531,-0.9531,0,0,0,0,0,0,0,0,0,0,0,0,0,-0.9584,-0.9585,-0.9589,-0.9589,-0.9589,-0.9578,-0.9577,-0.9577,-0.9544,-0.9543,-0.9542,-0.9541,-0.9531,-0.9531,-0.9531,0,0,0,0,0,0,0,0,0,0,0,0,0,-0.9581,-0.9585,-0.9589,-0.9571,-0.9569,-0.9578,-0.9577,-0.9577,-0.9544,-0.9543,-0.9542,-0.9541,-0.953,-0.9531,-0.9532,-0.9557,0,0,-0.9533,-0.9534,0,0,0,0,0,0,0,0,-0.9581,-0.9581,-0.9574,-0.9572,-0.957,-0.9561,-0.9572,-0.9571,-0.9544,-0.9554,-0.9542,-0.954,-0.9542,-0.9541,-0.9542,-0.9557,-0.9556,-0.9533,-0.9534,-0.9534,-0.9534,0,0,0,0,0,0,0,-0.9581,-0.9582,-0.9585,-0.9574,-0.9572,-0.9564,-0.9562,-0.9571,-0.9554,-0.9553,-0.955,-0.9549,-0.9541,-0.9541,-0.9541,-0.9556,-0.9533,-0.9534,-0.9534,-0.9535,-0.9593,-0.9594,0,0,0,0,0,0,-0.9584,-0.9582,-0.9585,-0.9584,-0.9573,-0.9565,-0.9563,-0.9565,-0.9554,-0.9551,-0.955,-0.9548,-0.9541,-0.954,-0.9541,-0.9571,-0.9534,-0.9535,-0.9535,-0.9592,-0.9593,-0.9594,0,0,0,0,0,0,-0.9584,-0.9585,-0.9585,-0.9582,-0.9582,-0.9566,-0.9569,-0.9565,-0.9566,-0.9552,-0.9549,-0.9554,-0.954,-0.954,-0.9553,-0.957,-0.9535,-0.9535,-0.959,-0.9592,-0.9594,-0.963,0,0,0,0,0,0,-0.9584,-0.9585,-0.9594,-0.9583,-0.9582,-0.9598,-0.957,-0.9566,-0.9567,-0.9563,-0.9554,-0.9552,-0.9539,-0.9553,-0.9554,-0.957,-0.9536,-0.9589,-0.9591,-0.9593,-0.9628,-0.9633,-0.9638,0,0,0,0,0,-0.9584,-0.9605,-0.9595,-0.9595,-0.9593,-0.9599,-0.9599,-0.9583,-0.9568,-0.9578,-0.9569,-0.9552,-0.9568,-0.9554,-0.9556,-0.9572,-0.9588,-0.959,-0.9593,-0.9625,-0.9632,-0.9638,0,0,0,0,0,0,-0.9619,-0.9603,-0.9592,-0.9609,-0.9606,-0.9594,-0.9605,-0.9591,-0.9592,-0.9588,-0.9569,-0.9567,-0.9584,-0.9579,-0.9565,-0.9597,-0.9575,-0.9578,-0.9599,-0.9606,-0.9611,-0.9612,-0.9536,0,0,0,0,0,-0.9629,-0.9634,-0.962,-0.9638,-0.9636,-0.9621,-0.9623,-0.9611,-0.9607,-0.9605,-0.9597,-0.9594,-0.9598,-0.9602,-0.9605,-0.9627,-0.9625,-0.9639,-0.9644,-0.9648,-0.9651,-0.9663,-0.9669,-0.9603,-0.9603,-0.9603,0,0,-0.9649,-0.9641,-0.9646,-0.9644,-0.964,-0.9647,-0.962,-0.9628,-0.9634,-0.9607,-0.9619,-0.9614,-0.9609,-0.9627,-0.9635,-0.9624,-0.9669,-0.9651,-0.9655,-0.9656,-0.9667,-0.9673,-0.9679,-0.9605,-0.9605,-0.9604,0,0,-0.969,-0.9684,-0.9698,-0.9694,-0.9688,-0.9678,-0.9681,-0.9671,-0.9666,-0.9679,-0.9659,-0.9665,-0.9672,-0.967,-0.967,-0.971,-0.9695,-0.9711,-0.9739,-0.9751,-0.9756,-0.9761,-0.9776,-0.9781,-0.9714,-0.9715,-0.9715,0,-0.9716,-0.9725,-0.9707,-0.9717,-0.9717,-0.9693,-0.9707,-0.9705,-0.97,-0.9701,-0.9689,-0.9698,-0.9693,-0.9711,-0.9721,-0.9721,-0.9725,-0.9713,-0.9757,-0.9761,-0.9765,-0.9779,-0.9785,-0.9717,-0.9716,-0.9716,-0.9716,0,-0.9758,-0.9764,-0.9777,-0.9773,-0.9774,-0.9786,-0.9771,-0.9775,-0.9763,-0.9754,-0.9767,-0.9761,-0.9762,-0.9765,-0.9754,-0.9782,-0.9775,-0.976,-0.9738,-0.9774,-0.9787,-0.9792,-0.972,-0.9719,-0.9718,-0.9718,0,0,-0.982,-0.9806,-0.9811,-0.9809,-0.9801,-0.9806,-0.9818,-0.9819,-0.9823,-0.9821,-0.983,-0.9837,-0.9823,-0.9823,-0.9811,-0.9821,-0.9855,-0.9805,-0.9804,-0.9815,-0.9886,-0.9898,-0.9905,-0.9845,-0.9846,-0.9846,-0.9887,0,-0.9859,-0.9877,-0.9862,-0.9883,-0.989,-0.9867,-0.9877,-0.9873,-0.9865,-0.987,-0.9862,-0.9867,-0.9848,-0.9848,-0.9857,-0.9849,-0.9869,-0.9846,-0.9854,-0.9855,-0.9857,-0.9912,-0.9924,-0.9963,-0.9892,-0.9893,-0.9893,0,-0.9907,-0.9907,-0.9929,-0.992,-0.9922,-0.9931,-0.9931,-0.9936,-0.9932,-0.9925,-0.9925,-0.9911,-0.9922,-0.99,-0.9915,-0.99,-0.9902,-0.9899,-0.99,-0.9901,-0.9877,-0.9915,-0.9975,-0.9981,-0.9901,-0.99,-0.99,0,-0.9952,-0.9957,-0.9971,-0.997,-0.996,-0.9967,-0.9963,-0.9957,-0.9959,-0.9959,-0.9961,-0.9962,-0.9963,-0.9965,-0.9952,-0.9937,-0.9969,-0.9946,-0.9965,-0.9966,-0.9974,-0.9973,-1.0036,-0.9974,-0.9974,-0.9974,-0.9974,0,-0.9998,-1.0012,-0.9991,-1.0,-1.0016,-0.9998,-1.0014,-1.0008,-1.0003,-1.0011,-0.9991,-0.9999,-0.998,-0.9986,-0.9975,-0.999,-0.9991,-0.9986,-0.9984,-0.9989,-0.9989,-0.999,-0.9988,-0.9975,-0.9975,-0.9975,-0.9975,0,-1.0051,-1.0037,-1.0051,-1.0039,-1.0037,-1.0049,-1.004,-1.0048,-1.0039,-1.0049,-1.005,-1.0036,-1.0042,-1.0028,-1.0032,-1.0025,-1.0047,-1.0039,-1.0048,-1.0046,-1.0066,-1.0065,-1.0133,-1.0141,-1.0073,-1.0074,-1.0074,0,-1.0081,-1.0092,-1.0082,-1.0085,-1.0082,-1.0088,-1.009,-1.0072,-1.0075,-1.0071,-1.008,-1.0084,-1.0087,-1.0097,-1.0088,-1.0091,-1.0084,-1.0107,-1.0085,-1.009,-1.0086,-1.0085,-1.0087,-1.0113,-1.0113,-1.0114,-1.0115,0,-1.0137,-1.013,-1.0133,-1.0134,-1.0137,-1.0137,-1.0135,-1.0139,-1.0121,-1.0126,-1.0131,-1.0133,-1.0137,-1.0142,-1.0143,-1.0139,-1.0125,-1.0122,-1.0127,-1.0132,-1.0137,-1.0136,-1.0062,-1.0121,-1.012,-1.0119,-1.0119,-1.0119,-1.018,-1.0189,-1.0183,-1.0188,-1.0185,-1.0184,-1.0191,-1.0183,-1.0187,-1.0189,-1.0178,-1.0187,-1.0183,-1.0182,-1.018,-1.0187,-1.0176,-1.0183,-1.0185,-1.0187,-1.0191,-1.0136,-1.0187,-1.0187,-1.0186,-1.0186,-1.0186,0,-1.0236,-1.0231,-1.0235,-1.0234,-1.0238,-1.0222,-1.022,-1.0225,-1.0232,-1.0229,-1.0232,-1.0239,-1.0243,-1.0234,-1.0237,-1.0245,-1.0238,-1.0246,-1.0246,-1.0245,-1.0199,-1.0195,-1.0252,-1.0251,-1.0251,-1.0251,-1.0251,-1.0251,-1.0266,-1.028,-1.0272,-1.0285,-1.028,-1.0287,-1.0287,-1.0287,-1.0285,-1.0293,-1.0297,-1.029,-1.0285,-1.0288,-1.0292,-1.0289,-1.0292,-1.0302,-1.0298,-1.0255,-1.0249,-1.0243,-1.0239,-1.0303,-1.0303,-1.0343,-1.0343,-1.0344]},{"header":{"parameterUnit":"m.s-1","parameterCategory":1,"la1":30.2991,"la2":30.254,"lo1":-89.0895,"lo2":-89.0444,"dy":0.0017,"dx":0.0017,"nx":28,"ny":28,"refTime":"2024-05-24T03:00:00:Z","depth":0,"parameterNumber":3,"parameterNumberName":"V-component_of_WINDS"},"data":[0,0,0,0,0,0,0,0,0,0,0,0,0,0,0,0,0,0,0,0,0,0,0,0,0,0,0,0,0,0,0,0,0,0,0,0,0,0,0,0,0,0,0,0,0,0,0,0,0,0,0,0,0,0,0,0,0,0,3.8674,3.8675,0,3.8707,3.8708,3.8708,3.8663,3.8661,3.866,3.8658,3.869,3.8692,3.8694,0,0,0,0,0,0,0,0,0,0,0,0,0,3.8569,3.8571,3.8674,3.8675,3.8675,3.8707,3.8708,3.8708,3.8663,3.8661,3.8659,3.8657,3.8689,3.8692,3.8694,0,0,0,0,0,0,0,0,0,0,0,0,0,3.861,3.8572,3.8674,3.8657,3.8655,3.8707,3.8708,3.8708,3.8664,3.8661,3.8659,3.8656,3.8688,3.8691,3.8695,3.8765,0,0,3.8705,3.8707,0,0,0,0,0,0,0,0,3.8607,3.8614,3.8659,3.8658,3.8657,3.8679,3.8682,3.8727,3.8664,3.866,3.8658,3.8655,3.8688,3.8691,3.8702,3.8766,3.8768,3.8706,3.8708,3.8709,3.871,0,0,0,0,0,0,0,3.8605,3.8612,3.8687,3.866,3.8658,3.8646,3.8649,3.869,3.8687,3.8661,3.8657,3.8662,3.8687,3.8699,3.8703,3.8768,3.8706,3.8709,3.8711,3.8712,3.8889,3.8891,0,0,0,0,0,0,3.8604,3.861,3.8686,3.8688,3.8626,3.865,3.8653,3.8674,3.8687,3.8686,3.8664,3.866,3.8694,3.8699,3.8704,3.8785,3.8709,3.8713,3.8715,3.8886,3.8889,3.8892,0,0,0,0,0,0,3.8602,3.8612,3.8685,3.8648,3.8657,3.8654,3.8678,3.8676,3.8688,3.8689,3.8688,3.8678,3.8693,3.8699,3.875,3.8786,3.8714,3.8717,3.8883,3.8887,3.8891,3.8949,0,0,0,0,0,0,3.8599,3.8611,3.8639,3.8649,3.8659,3.8731,3.868,3.8678,3.8695,3.869,3.8702,3.8701,3.8691,3.8745,3.8753,3.8789,3.872,3.888,3.8885,3.889,3.8944,3.8955,3.8964,0,0,0,0,0,3.8596,3.8654,3.864,3.865,3.8693,3.8734,3.8739,3.8727,3.8698,3.8725,3.8725,3.8701,3.8781,3.875,3.8759,3.8797,3.8878,3.8884,3.8889,3.894,3.8953,3.8963,0,0,0,0,0,0,3.8647,3.8655,3.864,3.8703,3.8718,3.8726,3.8759,3.8741,3.8764,3.8758,3.8741,3.8744,3.8798,3.8803,3.8769,3.8864,3.8824,3.8832,3.8859,3.8872,3.8881,3.8878,3.8723,0,0,0,0,0,3.8666,3.8699,3.8703,3.8759,3.8767,3.8762,3.8779,3.8769,3.8783,3.8789,3.8793,3.8807,3.8835,3.8854,3.888,3.8945,3.8946,3.8975,3.8985,3.8993,3.8999,3.9032,3.9045,3.8911,3.8911,3.8911,0,0,3.8704,3.8713,3.8734,3.8769,3.8779,3.8812,3.8768,3.8805,3.8829,3.8794,3.8842,3.8846,3.886,3.8918,3.8944,3.8924,3.9037,3.9,3.9007,3.9009,3.904,3.9052,3.9063,3.8915,3.8915,3.8914,0,0,3.8791,3.8802,3.8848,3.8859,3.8876,3.8872,3.8883,3.8894,3.8895,3.8943,3.8917,3.8945,3.8994,3.9005,3.9017,3.9107,3.9085,3.9116,3.9167,3.9199,3.9209,3.9219,3.9249,3.926,3.9123,3.9123,3.9123,0,3.8837,3.8887,3.8874,3.8913,3.8928,3.8899,3.8944,3.8956,3.898,3.899,3.8968,3.9027,3.9035,3.9094,3.9116,3.9128,3.9139,3.9114,3.9209,3.9218,3.9227,3.9255,3.9267,3.9127,3.9126,3.9126,3.9126,0,3.8941,3.8976,3.9012,3.9036,3.9055,3.9097,3.9089,3.911,3.9098,3.9096,3.9144,3.9153,3.9179,3.9193,3.9181,3.925,3.9236,3.9212,3.9171,3.9243,3.927,3.9281,3.9132,3.913,3.9129,3.9129,0,0,3.9061,3.9077,3.909,3.91,3.9115,3.9141,3.9182,3.9208,3.9225,3.9243,3.9275,3.9317,3.9294,3.9307,3.9297,3.9325,3.9394,3.9297,3.9297,3.9313,3.9468,3.9485,3.9498,3.938,3.9382,3.9384,3.9466,0,3.9147,3.9217,3.9206,3.9273,3.9304,3.9277,3.9311,3.9324,3.9323,3.9349,3.9348,3.9377,3.9345,3.9353,3.938,3.938,3.9424,3.9374,3.9408,3.941,3.9404,3.9513,3.9531,3.9609,3.9477,3.9479,3.948,0,3.9256,3.9277,3.9348,3.9357,3.937,3.9401,3.9424,3.9449,3.9462,3.9459,3.9474,3.9458,3.9497,3.9456,3.9508,3.9474,3.9488,3.9489,3.9492,3.9493,3.9448,3.9515,3.9633,3.9644,3.9497,3.9495,3.9494,0,3.9334,3.938,3.9428,3.9438,3.945,3.9473,3.9479,3.9489,3.9505,3.9525,3.9535,3.9558,3.9571,3.9589,3.9579,3.9551,3.9632,3.9591,3.963,3.963,3.9647,3.9646,3.9767,3.9659,3.9659,3.9658,3.9658,0,3.943,3.9474,3.9463,3.9492,3.954,3.9527,3.9574,3.9576,3.9586,3.9614,3.9592,3.9619,3.9604,3.963,3.9622,3.9665,3.9672,3.967,3.9667,3.9671,3.9671,3.9678,3.9672,3.9661,3.9661,3.966,3.966,0,3.9524,3.952,3.9569,3.9577,3.958,3.9614,3.962,3.9647,3.9645,3.968,3.9688,3.9684,3.9713,3.9705,3.9736,3.973,3.9785,3.9776,3.978,3.9778,3.9816,3.9812,3.9945,3.9961,3.9844,3.9845,3.9846,0,3.9585,3.9618,3.9629,3.9647,3.9655,3.9683,3.9699,3.9687,3.9705,3.9721,3.9746,3.9772,3.9793,3.984,3.9839,3.9862,3.9853,3.9898,3.9856,3.9858,3.9851,3.9849,3.9851,3.9905,3.9907,3.9908,3.9909,0,3.9693,3.9688,3.9713,3.9737,3.9756,3.9774,3.979,3.9805,3.9794,3.9814,3.9844,3.986,3.9891,3.9917,3.9938,3.9943,3.9924,3.9922,3.9932,3.9935,3.9936,3.9934,3.9801,3.9919,3.9918,3.9917,3.9916,3.9916,3.9771,3.9798,3.981,3.9838,3.9848,3.9863,3.9888,3.9889,3.9913,3.9938,3.9929,3.9962,3.9973,3.9999,4.0007,4.0031,4.0014,4.0029,4.0032,4.0036,4.004,3.9934,4.0036,4.0035,4.0035,4.0035,4.0034,0,3.9876,3.9882,3.9908,3.993,3.9951,3.9932,3.9948,3.9967,3.9996,4.0008,4.0029,4.0062,4.0087,4.0088,4.0111,4.0131,4.0122,4.0137,4.0134,4.0136,4.0055,4.0043,4.0143,4.0143,4.0143,4.0143,4.0143,4.0143,3.9933,3.9978,3.9975,4.0024,4.0029,4.0062,4.0072,4.0085,4.0094,4.0132,4.0153,4.0154,4.0161,4.0184,4.0206,4.0205,4.0214,4.0232,4.0228,4.0152,4.0141,4.0131,4.012,4.0235,4.0235,4.0307,4.0307,4.0308]}]]